{"data":{"norad_id":60722,"intl_designator":"2024-152C","name":"STARLINK-11188 [DTC]","alt_names":[],"object_type":"PAYLOAD","status":"ACTIVE","operator":null,"country":"US","launch_date":"2024-08-28","launch_site_code":"AFETR","launch_vehicle":null,"mission":null,"orbit_class":"UNKNOWN","rcs_meters":null,"size_class":null,"mass_kg":null,"dimensions":null,"purposes":["comms"],"wikipedia_slug":null,"has_3d_model":false,"image_url":null,"decayed_at":null,"tle_current":{"epoch":"2026-09-21T06:58:12.566208Z","epoch_age_seconds":120141,"freshness":"FRESH","line1":"1 60722U 24152C   26264.29042322  .00000029  00000+0  50995-5 0  9998","line2":"2 60722  53.1570 232.2183 0000945  77.9523 282.1601 15.69709242119671","mean_motion":15.69709242,"eccentricity":9.45e-5,"inclination_deg":53.157,"raan_deg":232.2183,"arg_perigee_deg":77.9523,"mean_anomaly_deg":282.1601,"bstar":5.0995e-6,"rev_number":11967,"period_min":91.736734515576,"perigee_km":359.09219119711,"apogee_km":360.3656478559,"semimajor_km":6737.8659195265,"source":"CELESTRAK","updated_at":"2026-09-22T09:00:49.277189Z"}}}